This is the latest recevied weather packets stored in our database for station/object N3WMC. If no packets are shown the sender has not sent any weather packets the latest 10 day(s).
| Time | Temp. | Humidity | Pressure | Rain* | Wind** | Luminosity | Snow |
|---|---|---|---|---|---|---|---|
| 1777554440 | 8.33° C | 93% | 1011 hPa | 0 mm | - | 57 W/m² | - |
| 1777554136 | 8.33° C | 93% | 1011.3 hPa | 0 mm | - | 52 W/m² | - |
| 1777553833 | 8.33° C | 93% | 1011 hPa | 0 mm | - | 53 W/m² | - |
| 1777553529 | 8.33° C | 93% | 1011.1 hPa | 1.27 mm | - | 51 W/m² | - |
| 1777553224 | 8.33° C | 93% | 1011 hPa | 1.27 mm | - | 63 W/m² | - |
| 1777552921 | 8.33° C | 93% | 1011 hPa | 0 mm | - | 55 W/m² | - |
| 1777552616 | 8.33° C | 93% | 1010.9 hPa | 0 mm | - | 53 W/m² | - |
| 1777552313 | 8.89° C | 94% | 1011 hPa | 0 mm | - | 42 W/m² | - |
| 1777552009 | 8.89° C | 93% | 1010.6 hPa | 1.78 mm | - | 41 W/m² | - |
| 1777551706 | 8.89° C | 93% | 1010.8 hPa | 1.78 mm | - | 39 W/m² | - |
| 1777551404 | 8.89° C | 92% | 1010.7 hPa | 3.05 mm | - | 27 W/m² | - |
| 1777551095 | 8.89° C | 92% | 1010.7 hPa | 3.05 mm | - | 26 W/m² | - |
| 1777550792 | 8.89° C | 91% | 1010.5 hPa | 0 mm | - | 10 W/m² | - |
| 1777550488 | 9.44° C | 91% | 1010.7 hPa | 0 mm | - | 14 W/m² | - |
| 1777550184 | 9.44° C | 91% | 1010.5 hPa | 0 mm | - | 14 W/m² | - |
| 1777549881 | 9.44° C | 90% | 1010.5 hPa | 0 mm | - | 27 W/m² | - |
| 1777549577 | 9.44° C | 91% | 1010.4 hPa | 0 mm | - | 65 W/m² | - |
| 1777549273 | 8.89° C | 91% | 1010.3 hPa | 0 mm | - | 44 W/m² | - |
| 1777548969 | 8.89° C | 91% | 1010.5 hPa | 0 mm | - | 30 W/m² | - |
| 1777548661 | 8.89° C | 92% | 1010.5 hPa | 0 mm | - | 16 W/m² | - |
| 1777548357 | 8.89° C | 92% | 1010.3 hPa | 0 mm | - | 22 W/m² | - |
| 1777548055 | 8.89° C | 92% | 1010.4 hPa | 0 mm | - | 28 W/m² | - |
| 1777547750 | 8.89° C | 92% | 1010.3 hPa | 0 mm | - | 31 W/m² | - |
| 1777547447 | 8.89° C | 92% | 1010.5 hPa | 0 mm | - | 23 W/m² | - |
| 1777547144 | 8.89° C | 92% | 1010.3 hPa | 0 mm | - | 19 W/m² | - |
* Rain latest hour (hover to see other rain measurements)
** Current wind speed in m/s (hover to see current wind gust speed)